DW7099 Weather Reports


time (UTC)temp
C
wind
direction
speed
KPH
gust
KPH
rain 1hr
cm
rain 24hr
cm
rain mn
cm
humidity
%
barometer
mb
20260502160201 12 0 0.0 3.2 0.00 0.00 0.00 54 1013.0
20260502151649 12 0 0.0 1.6 0.00 0.00 0.00 59 1013.4
20260502151147 12 0 0.0 1.6 0.00 0.00 0.00 59 1012.9
20260502150633 12 166 0.0 1.6 0.00 0.00 0.00 59 1013.0
20260502150133 12 232 0.0 1.6 0.00 0.00 0.00 61 1013.0
20260502140116 11 0 0.0 3.2 0.00 0.00 0.00 65 1013.1
20260502130603 11 0 0.0 1.6 0.00 0.00 0.00 70 1012.7
20260502130103 11 170 0.0 1.6 0.00 0.00 0.00 70 1012.7
20260502123807 11 0 0.0 1.6 0.00 0.00 0.00 75 1012.6
20260502123048 11 0 0.0 0.0 0.00 0.00 0.00 79 1012.6
20260502122809 11 0 0.0 0.0 0.00 0.00 0.00 79 1012.4
20260502122034 11 0 0.0 0.0 0.00 0.00 0.00 80 1012.4
20260502121535 11 0 0.0 1.6 0.00 0.00 0.00 80 1012.3
20260502121034 10 0 0.0 1.6 0.00 0.00 0.00 81 1012.2
20260502120536 10 0 0.0 0.0 0.00 0.00 0.00 83 1012.1
20260502115537 10 0 0.0 0.0 0.00 0.00 0.00 85 1012.1
20260502115036 10 0 0.0 0.0 0.00 0.00 0.00 86 1012.1
20260502114536 10 0 0.0 0.0 0.00 0.00 0.00 88 1012.1
20260502114258 10 0 0.0 0.0 0.00 0.00 0.00 89 1012.2
20260502113536 10 0 0.0 0.0 0.00 0.00 0.00 90 1012.2
20260502113034 10 0 0.0 0.0 0.00 0.00 0.00 91 1012.2
20260502112755 10 0 0.0 0.0 0.00 0.00 0.00 91 1012.2
20260502112035 10 0 0.0 0.0 0.00 0.00 0.00 91 1012.2
20260502111537 10 0 0.0 0.0 0.00 0.00 0.00 91 1012.1
20260502111019 9 0 0.0 0.0 0.00 0.00 0.00 91 1012.2
20260502110521 9 0 0.0 0.0 0.00 0.00 0.00 92 1012.2
20260502110019 9 0 0.0 0.0 0.00 0.00 0.00 93 1012.3
20260502105522 9 0 0.0 0.0 0.00 0.00 0.00 92 1012.4
20260502105019 9 0 0.0 0.0 0.00 0.00 0.00 92 1012.3
20260502104021 9 0 0.0 0.0 0.00 0.00 0.00 92 1012.3
20260502103521 9 0 0.0 0.0 0.00 0.00 0.00 93 1012.2
20260502103019 9 0 0.0 0.0 0.00 0.00 0.00 92 1012.1
20260502102520 9 0 0.0 0.0 0.00 0.00 0.00 92 1012.0
20260502102021 9 0 0.0 0.0 0.00 0.00 0.00 92 1012.0
20260502101738 9 0 0.0 0.0 0.00 0.00 0.00 92 1011.9
20260502101020 9 0 0.0 0.0 0.00 0.00 0.00 93 1011.8
20260502100509 9 0 0.0 0.0 0.00 0.00 0.00 92 1011.7
20260502091453 9 0 0.0 0.0 0.00 0.00 0.00 92 1011.5
20260502090453 9 0 0.0 0.0 0.00 0.00 0.00 92 1011.4
20260502071353 10 0 0.0 0.0 0.00 0.00 0.00 88 1011.0
20260502070854 10 0 0.0 1.6 0.00 0.00 0.00 88 1011.0
20260502070353 10 0 0.0 1.6 0.00 0.00 0.00 88 1010.9
20260502065853 10 0 0.0 0.0 0.00 0.00 0.00 87 1010.9
20260502065353 10 0 0.0 0.0 0.00 0.00 0.00 86 1011.0
20260502064854 10 0 0.0 0.0 0.00 0.00 0.00 86 1011.0
20260502064354 10 0 0.0 0.0 0.00 0.00 0.00 86 1011.0
20260502063854 10 0 0.0 0.0 0.00 0.00 0.00 86 1011.0
20260502063616 10 0 0.0 1.6 0.00 0.00 0.00 86 1011.0
20260502062854 10 0 0.0 1.6 0.00 0.00 0.00 85 1011.0
20260502062354 10 0 0.0 0.0 0.00 0.00 0.00 85 1010.9
20260502062100 10 0 0.0 0.0 0.00 0.00 0.00 84 1010.9
20260502061322 10 0 0.0 1.6 0.00 0.00 0.00 84 1011.0
20260502060323 11 0 0.0 0.0 0.00 0.00 0.00 83 1011.1
20260502055824 11 0 0.0 0.0 0.00 0.00 0.00 83 1011.1
20260502055324 11 0 0.0 0.0 0.00 0.00 0.00 83 1011.1
20260502054824 11 0 0.0 0.0 0.00 0.00 0.00 83 1011.2
20260502054323 11 0 0.0 0.0 0.00 0.00 0.00 83 1011.3
20260502053823 11 0 0.0 1.6 0.00 0.00 0.00 82 1011.3
20260502053324 11 0 0.0 1.6 0.00 0.00 0.00 82 1011.4
20260502052823 11 0 0.0 1.6 0.00 0.00 0.00 82 1011.3
20260502052311 11 0 0.0 0.0 0.00 0.00 0.00 81 1011.4
20260502051811 11 0 0.0 1.6 0.00 0.00 0.00 81 1011.4
20260502051310 11 0 0.0 1.6 0.00 0.00 0.00 81 1011.4
20260502050755 11 301 0.0 1.6 0.00 0.00 0.00 80 1011.5
20260502050255 11 0 0.0 1.6 0.00 0.00 0.00 80 1011.6
20260502045756 11 0 0.0 0.0 0.00 0.00 0.00 79 1011.6
20260502045255 11 0 0.0 0.0 0.00 0.00 0.00 79 1011.7
20260502044755 11 0 0.0 0.0 0.00 0.00 0.00 79 1011.7
20260502044255 11 0 0.0 1.6 0.00 0.00 0.00 78 1011.8
20260502043256 12 262 0.0 1.6 0.00 0.00 0.00 78 1011.8
20260502043020 12 0 0.0 1.6 0.00 0.00 0.00 77 1011.9
20260502042522 12 0 0.0 1.6 0.00 0.00 0.00 77 1011.9
20260502041756 12 0 0.0 1.6 0.00 0.00 0.00 78 1011.9
20260502041257 12 0 0.0 1.6 0.00 0.00 0.00 77 1011.9
20260502040755 12 0 0.0 3.2 0.00 0.00 0.00 77 1011.8
20260502040255 12 0 0.0 3.2 0.00 0.00 0.00 77 1011.8
20260502040014 12 0 0.0 3.2 0.00 0.00 0.00 77 1011.7
20260502035506 12 0 0.0 3.2 0.00 0.00 0.00 76 1011.7
20260502034741 12 324 0.0 3.2 0.00 0.00 0.00 76 1011.7
20260502034243 12 0 0.0 1.6 0.00 0.00 0.00 76 1011.7
20260502034004 12 20 0.0 1.6 0.00 0.00 0.00 76 1011.7
20260502033241 12 0 0.0 1.6 0.00 0.00 0.00 75 1011.7
20260502032742 12 27 0.0 3.2 0.00 0.00 0.00 75 1011.7
20260502032242 12 51 0.0 3.2 0.00 0.00 0.00 75 1011.7
20260502031741 12 0 0.0 1.6 0.00 0.00 0.00 74 1011.6
20260502031506 12 53 0.0 1.6 0.00 0.00 0.00 74 1011.6
20260502030742 12 0 0.0 1.6 0.00 0.00 0.00 74 1011.5
20260502030501 12 294 0.0 4.8 0.00 0.00 0.00 73 1011.4
20260502030005 12 0 0.0 4.8 0.00 0.00 0.00 73 1011.3
20260502025243 12 0 0.0 3.2 0.00 0.00 0.00 72 1011.4
20260502024743 13 23 0.0 1.6 0.00 0.00 0.00 72 1011.2
20260502024243 13 0 0.0 1.6 0.00 0.00 0.00 71 1011.3
20260502023725 13 0 0.0 3.2 0.00 0.00 0.00 71 1011.3
20260502023225 13 0 0.0 3.2 0.00 0.00 0.00 70 1011.5
20260502022726 13 0 0.0 3.2 0.00 0.00 0.00 70 1011.4
20260502022449 13 27 0.0 3.2 0.00 0.00 0.00 69 1011.6
20260502021726 13 0 0.0 3.2 0.00 0.00 0.00 69 1011.6
20260502021449 13 356 0.0 1.6 0.00 0.00 0.00 69 1011.5
20260502020944 13 0 0.0 1.6 0.00 0.00 0.00 68 1011.5
20260502020226 13 0 0.0 3.2 0.00 0.00 0.00 68 1011.4
20260502015727 13 288 0.0 3.2 0.00 0.00 0.00 67 1011.5
20260502015225 14 18 0.0 1.6 0.00 0.00 0.00 66 1011.5
20260502014713 14 54 1.6 6.4 0.00 0.00 0.00 66 1011.4
20260502014212 14 41 1.6 6.4 0.00 0.00 0.00 65 1011.4
20260502013659 14 1 0.0 3.2 0.00 0.00 0.00 65 1011.3
20260502013421 14 0 0.0 1.6 0.00 0.00 0.00 65 1011.1
20260502012847 14 0 0.0 3.2 0.00 0.00 0.00 64 1011.1
20260502012127 13 40 0.0 3.2 0.00 0.00 0.00 64 1011.1
20260502011627 13 0 0.0 3.2 0.00 0.00 0.00 64 1011.0
20260502011127 13 37 1.6 3.2 0.00 0.00 0.00 65 1010.9
20260502010627 13 31 0.0 3.2 0.00 0.00 0.00 65 1010.9
20260502010128 13 13 0.0 1.6 0.00 0.00 0.00 65 1010.8
20260502005627 13 53 0.0 1.6 0.00 0.00 0.00 65 1010.8
20260502005127 14 0 0.0 0.0 0.00 0.00 0.00 63 1010.7
20260502004851 14 0 0.0 0.0 0.00 0.00 0.00 63 1010.6
20260502004127 14 0 0.0 0.0 0.00 0.00 0.00 62 1010.4
20260502003127 15 0 0.0 0.0 0.00 0.00 0.00 59 1010.3
20260502002850 15 0 0.0 0.0 0.00 0.00 0.00 59 1010.3
20260502002128 15 0 0.0 0.0 0.00 0.00 0.00 58 1010.3
20260502001627 15 0 0.0 0.0 0.00 0.00 0.00 56 1010.2
20260502001114 16 0 0.0 0.0 0.00 0.00 0.00 55 1010.2
20260502000842 16 0 0.0 0.0 0.00 0.00 0.00 54 1010.3
20260502000115 16 0 0.0 1.6 0.00 0.00 0.00 54 1010.3
20260501235835 16 0 0.0 1.6 0.00 0.00 0.00 52 1010.3
20260501235115 16 0 0.0 1.6 0.00 0.00 0.00 52 1010.3
20260501234614 16 57 0.0 1.6 0.00 0.00 0.00 51 1010.2
20260501234114 17 0 0.0 1.6 0.00 0.00 0.00 49 1010.2
20260501233615 17 0 0.0 1.6 0.00 0.00 0.00 49 1010.1
20260501233100 17 33 0.0 1.6 0.00 0.00 0.00 49 1010.1
20260501232559 17 0 0.0 1.6 0.00 0.00 0.00 47 1010.0
20260501232100 17 0 0.0 1.6 0.00 0.00 0.00 46 1010.0
20260501231559 17 0 0.0 3.2 0.00 0.00 0.00 45 1010.0
20260501231059 17 35 0.0 3.2 0.00 0.00 0.00 46 1010.1
20260501230600 17 280 1.6 3.2 0.00 0.00 0.00 45 1010.0
20260501230046 17 312 1.6 3.2 0.00 0.00 0.00 45 1010.0
20260501225530 18 0 1.6 3.2 0.00 0.00 0.00 45 1010.1
20260501225029 18 48 1.6 4.8 0.00 0.00 0.00 45 1010.1
20260501224529 18 0 1.6 4.8 0.00 0.00 0.00 45 1010.2
20260501224030 18 58 1.6 3.2 0.00 0.00 0.00 45 1010.2
20260501223529 18 77 1.6 4.8 0.00 0.00 0.00 44 1010.3
20260501223029 18 0 1.6 4.8 0.00 0.00 0.00 43 1010.3
20260501222530 18 64 1.6 4.8 0.00 0.00 0.00 43 1010.4
20260501222254 18 92 1.6 4.8 0.00 0.00 0.00 43 1010.3
20260501221529 18 299 1.6 4.8 0.00 0.00 0.00 43 1010.3
20260501221030 18 289 1.6 4.8 0.00 0.00 0.00 42 1010.3
20260501220529 18 31 1.6 4.8 0.00 0.00 0.00 41 1010.3
20260501220029 18 0 1.6 3.2 0.00 0.00 0.00 40 1010.3
20260501215530 18 320 1.6 3.2 0.00 0.00 0.00 40 1010.3
20260501215017 18 60 1.6 3.2 0.00 0.00 0.00 40 1010.3
20260501214732 18 89 0.0 3.2 0.00 0.00 0.00 41 1010.2
20260501214015 18 0 0.0 3.2 0.00 0.00 0.00 40 1010.2
20260501213516 18 71 1.6 3.2 0.00 0.00 0.00 40 1010.2
20260501213017 18 35 1.6 3.2 0.00 0.00 0.00 39 1010.2
20260501212516 18 343 1.6 3.2 0.00 0.00 0.00 40 1010.2
20260501212016 18 95 1.6 3.2 0.00 0.00 0.00 42 1010.2
20260501211517 18 0 1.6 3.2 0.00 0.00 0.00 39 1010.2
20260501211002 18 287 1.6 3.2 0.00 0.00 0.00 42 1010.3
20260501210502 18 0 1.6 3.2 0.00 0.00 0.00 40 1010.2
20260501205947 18 319 0.0 3.2 0.00 0.00 0.00 41 1010.3
20260501205447 18 0 1.6 3.2 0.00 0.00 0.00 41 1010.3
20260501204948 19 285 1.6 3.2 0.00 0.00 0.00 38 1010.3
20260501204448 18 0 1.6 4.8 0.00 0.00 0.00 40 1010.4
20260501203931 18 63 3.2 6.4 0.00 0.00 0.00 42 1010.4
20260501203433 19 321 1.6 6.4 0.00 0.00 0.00 39 1010.5
20260501202930 19 193 1.6 4.8 0.00 0.00 0.00 42 1010.6
20260501202431 19 281 1.6 4.8 0.00 0.00 0.00 38 1010.7
20260501202155 19 63 1.6 3.2 0.00 0.00 0.00 40 1010.7
20260501201432 19 83 1.6 3.2 0.00 0.00 0.00 40 1010.8
20260501201155 19 0 0.0 3.2 0.00 0.00 0.00 39 1010.9
20260501200431 19 34 1.6 3.2 0.00 0.00 0.00 40 1010.9
20260501195931 19 23 1.6 3.2 0.00 0.00 0.00 38 1011.1
20260501195431 18 0 1.6 4.8 0.00 0.00 0.00 41 1011.2
20260501195154 18 96 1.6 4.8 0.00 0.00 0.00 38 1011.2
20260501194655 18 39 1.6 3.2 0.00 0.00 0.00 42 1011.3
20260501193933 18 322 1.6 3.2 0.00 0.00 0.00 40 1011.3
20260501193431 18 214 0.0 3.2 0.00 0.00 0.00 40 1011.3
20260501192932 18 315 0.0 3.2 0.00 0.00 0.00 40 1011.4
20260501192418 18 83 1.6 4.8 0.00 0.00 0.00 41 1011.6
20260501191903 18 42 3.2 9.7 0.00 0.00 0.00 40 1011.6
20260501191350 18 60 1.6 9.7 0.00 0.00 0.00 41 1011.8
20260501190848 18 298 1.6 4.8 0.00 0.00 0.00 40 1011.9
20260501190350 18 87 1.6 3.2 0.00 0.00 0.00 41 1011.9
20260501185834 18 102 1.6 3.2 0.00 0.00 0.00 41 1012.0
20260501185332 18 304 1.6 3.2 0.00 0.00 0.00 39 1012.1
20260501184832 18 17 1.6 4.8 0.00 0.00 0.00 40 1012.3
20260501184331 18 64 1.6 4.8 0.00 0.00 0.00 40 1012.4
20260501183832 18 28 1.6 4.8 0.00 0.00 0.00 38 1012.4
20260501183320 18 41 1.6 4.8 0.00 0.00 0.00 42 1012.6
20260501182819 18 247 1.6 3.2 0.00 0.00 0.00 41 1012.5
20260501182321 18 37 1.6 3.2 0.00 0.00 0.00 41 1012.5
20260501182038 18 166 1.6 3.2 0.00 0.00 0.00 42 1012.5
20260501181319 18 0 1.6 3.2 0.00 0.00 0.00 42 1012.7
20260501180819 17 255 1.6 4.8 0.00 0.00 0.00 42 1012.9
20260501180304 17 57 1.6 4.8 0.00 0.00 0.00 43 1013.0
20260501175806 17 359 1.6 4.8 0.00 0.00 0.00 41 1013.0
20260501175306 17 0 1.6 3.2 0.00 0.00 0.00 39 1012.9
20260501174750 17 234 1.6 6.4 0.00 0.00 0.00 41 1013.1
20260501174250 17 26 1.6 6.4 0.00 0.00 0.00 41 1013.2
20260501173749 17 50 1.6 3.2 0.00 0.00 0.00 44 1013.2
20260501173234 17 194 1.6 3.2 0.00 0.00 0.00 41 1013.2
20260501172735 17 25 1.6 3.2 0.00 0.00 0.00 42 1013.1
20260501172234 17 37 1.6 3.2 0.00 0.00 0.00 43 1013.3
20260501171733 17 184 1.6 4.8 0.00 0.00 0.00 42 1013.3
20260501171234 17 32 1.6 4.8 0.00 0.00 0.00 42 1013.5
20260501170735 17 26 1.6 4.8 0.00 0.00 0.00 44 1013.5
20260501170235 17 0 1.6 4.8 0.00 0.00 0.00 42 1013.4
20260501165734 17 43 0.0 3.2 0.00 0.00 0.00 43 1013.4
20260501165234 16 0 0.0 4.8 0.00 0.00 0.00 43 1013.4
20260501165001 16 21 0.0 4.8 0.00 0.00 0.00 46 1013.5
20260501164234 16 0 0.0 1.6 0.00 0.00 0.00 42 1013.5
20260501163734 16 0 0.0 1.6 0.00 0.00 0.00 43 1013.6
20260501163454 16 0 0.0 3.2 0.00 0.00 0.00 43 1013.7
20260501162736 16 0 0.0 3.2 0.00 0.00 0.00 43 1013.7
20260501162234 16 0 0.0 3.2 0.00 0.00 0.00 45 1013.9
20260501161736 16 238 0.0 3.2 0.00 0.00 0.00 44 1013.9
20260501161454 16 97 0.0 3.2 0.00 0.00 0.00 45 1014.0
20260501160735 16 0 0.0 3.2 0.00 0.00 0.00 44 1014.0